GW6902 Weather Reports


Display with metric or nautical units.
time (UTC)temp
F
wind
direction
speed
MPH
gust
MPH
rain 1hr
in
rain 24hr
in
rain mn
in
humidity
%
barometer
mb
20260505011416 76 217 0.0 0.0 0.00 0.00 0.00 44 1011.1
20260505010913 75 217 0.0 0.0 0.00 0.00 0.00 45 1011.1
20260505010408 75 217 0.0 1.0 0.00 0.00 0.00 47 1011.3
20260505005904 75 217 1.0 1.0 0.00 0.00 0.00 46 1011.2
20260505005401 75 218 0.0 2.0 0.00 0.00 0.00 48 1011.1
20260505004859 74 156 0.0 1.0 0.00 0.00 0.00 48 1011.2
20260505004355 75 153 0.0 2.0 0.00 0.00 0.00 49 1011.1
20260505003852 75 231 1.0 1.0 0.00 0.00 0.00 46 1011.2
20260505003350 75 228 2.0 2.0 0.00 0.00 0.00 44 1011.3
20260505002845 76 180 2.0 3.0 0.00 0.00 0.00 46 1011.3
20260505002342 76 187 0.0 1.0 0.00 0.00 0.00 44 1011.2
20260505001841 76 233 0.0 1.0 0.00 0.00 0.00 47 1011.3
20260505001338 77 198 1.0 1.0 0.00 0.00 0.00 46 1011.1
20260505000835 77 218 1.0 1.0 0.00 0.00 0.00 44 1011.4
20260505000333 79 147 0.0 1.0 0.00 0.00 0.00 43 1011.3
20260504235829 79 130 0.0 1.0 0.00 0.00 0.00 41 1011.3
20260504235326 80 113 0.0 1.0 0.00 0.00 0.00 37 1011.2
20260504234823 79 111 0.0 1.0 0.00 0.00 0.00 38 1011.3
20260504234320 80 122 0.0 1.0 0.00 0.00 0.00 34 1011.4
20260504233817 80 115 1.0 1.0 0.00 0.00 0.00 35 1011.3
20260504233312 79 178 0.0 1.0 0.00 0.00 0.00 37 1011.4
20260504232809 79 177 0.0 1.0 0.00 0.00 0.00 35 1011.3
20260504232307 77 125 1.0 1.0 0.00 0.00 0.00 39 1011.4
20260504231803 77 135 2.0 2.0 0.00 0.00 0.00 39 1011.4
20260504231300 77 202 0.0 3.0 0.00 0.00 0.00 38 1011.4
20260504230756 77 179 1.0 2.0 0.00 0.00 0.00 38 1011.2
20260504230254 77 117 2.0 3.0 0.00 0.00 0.00 39 1011.5
20260504225753 77 242 1.0 3.0 0.00 0.00 0.00 38 1011.5
20260504225248 76 183 1.0 2.0 0.00 0.00 0.00 41 1011.6
20260504224746 78 234 1.0 3.0 0.00 0.00 0.00 38 1011.9
20260504224243 79 78 1.0 2.0 0.00 0.00 0.00 43 1011.9
20260504223739 80 176 1.0 2.0 0.00 0.00 0.00 38 1011.6
20260504223235 80 142 0.0 1.0 0.00 0.00 0.00 38 1011.9
20260504222732 80 145 0.0 1.0 0.00 0.00 0.00 38 1011.8
20260504222229 79 73 1.0 1.0 0.00 0.00 0.00 37 1011.9
20260504221726 79 138 1.0 1.0 0.00 0.00 0.00 36 1011.8
20260504221223 79 231 1.0 2.0 0.00 0.00 0.00 37 1011.9
20260504220720 80 230 1.0 1.0 0.00 0.00 0.00 37 1011.8
20260504220217 80 229 0.0 1.0 0.00 0.00 0.00 34 1011.8
20260504215714 80 81 0.0 1.0 0.00 0.00 0.00 35 1012.0
20260504215211 79 77 1.0 2.0 0.00 0.00 0.00 41 1011.9
20260504214706 80 40 1.0 3.0 0.00 0.00 0.00 35 1012.0
20260504214203 80 40 1.0 1.0 0.00 0.00 0.00 35 1012.1
20260504213700 79 45 1.0 1.0 0.00 0.00 0.00 36 1011.9
20260504213157 78 141 0.0 2.0 0.00 0.00 0.00 37 1012.0
20260504212653 79 108 1.0 2.0 0.00 0.00 0.00 35 1012.2
20260504212150 79 137 0.0 2.0 0.00 0.00 0.00 35 1012.2
20260504211647 80 69 0.0 2.0 0.00 0.00 0.00 33 1012.4
20260504211143 80 94 0.0 1.0 0.00 0.00 0.00 34 1012.2
20260504210642 79 130 0.0 1.0 0.00 0.00 0.00 36 1012.0
20260504210138 80 232 2.0 2.0 0.00 0.00 0.00 38 1012.3
20260504205635 81 97 1.0 2.0 0.00 0.00 0.00 33 1012.2
20260504205132 81 286 1.0 1.0 0.00 0.00 0.00 34 1012.2
20260504204631 81 274 0.0 1.0 0.00 0.00 0.00 37 1012.1
20260504204130 80 67 1.0 1.0 0.00 0.00 0.00 34 1011.8
20260504203628 80 49 1.0 2.0 0.00 0.00 0.00 35 1012.0
20260504203125 80 50 2.0 2.0 0.00 0.00 0.00 34 1012.1
20260504202625 81 89 1.0 2.0 0.00 0.00 0.00 33 1011.9
20260504202123 81 73 1.0 1.0 0.00 0.00 0.00 31 1012.0
20260504201619 80 88 1.0 2.0 0.00 0.00 0.00 34 1012.0
20260504201117 80 63 2.0 3.0 0.00 0.00 0.00 31 1012.1
20260504200614 79 74 1.0 1.0 0.00 0.00 0.00 33 1012.3
20260504200110 80 234 0.0 3.0 0.00 0.00 0.00 36 1012.1
20260504195607 80 16 1.0 2.0 0.00 0.00 0.00 31 1012.2
20260504195103 80 145 1.0 1.0 0.00 0.00 0.00 33 1012.1
20260504194600 80 149 0.0 3.0 0.00 0.00 0.00 33 1012.3
20260504194055 81 114 1.0 1.0 0.00 0.00 0.00 32 1012.1
20260504193552 81 71 0.0 1.0 0.00 0.00 0.00 35 1012.2
20260504193051 81 41 1.0 1.0 0.00 0.00 0.00 32 1012.4
20260504192548 81 86 0.0 1.0 0.00 0.00 0.00 34 1012.2
20260504192046 81 89 1.0 2.0 0.00 0.00 0.00 33 1012.2
20260504191544 81 68 0.0 3.0 0.00 0.00 0.00 32 1012.0
20260504191040 81 92 1.0 1.0 0.00 0.00 0.00 32 1012.1
20260504190537 80 52 0.0 2.0 0.00 0.00 0.00 33 1012.3
20260504190032 78 27 0.0 2.0 0.00 0.00 0.00 37 1011.9
20260504185530 80 189 2.0 2.0 0.00 0.00 0.00 33 1012.1
20260504185026 79 255 1.0 1.0 0.00 0.00 0.00 33 1012.0
20260504184521 79 131 1.0 2.0 0.00 0.00 0.00 33 1012.0
20260504184017 79 169 0.0 1.0 0.00 0.00 0.00 35 1012.3
20260504183515 79 180 1.0 1.0 0.00 0.00 0.00 32 1012.2
20260504183013 78 173 1.0 2.0 0.00 0.00 0.00 34 1012.3
20260504182509 79 117 1.0 1.0 0.00 0.00 0.00 34 1012.4
20260504182007 78 178 1.0 1.0 0.00 0.00 0.00 34 1012.5
20260504181503 77 197 1.0 2.0 0.00 0.00 0.00 37 1012.5
20260504181002 76 211 1.0 2.0 0.00 0.00 0.00 37 1012.4
20260504180501 77 237 2.0 6.0 0.00 0.00 0.00 36 1012.3
20260504175958 77 188 1.0 2.0 0.00 0.00 0.00 36 1012.5
20260504175455 76 213 1.0 3.0 0.00 0.00 0.00 36 1012.3
20260504174953 75 218 1.0 1.0 0.00 0.00 0.00 36 1012.5
20260504174450 75 232 2.0 2.0 0.00 0.00 0.00 37 1012.4
20260504173947 76 181 3.0 3.0 0.00 0.00 0.00 37 1012.2
20260504173443 75 124 1.0 1.0 0.00 0.00 0.00 36 1012.6
20260504172941 76 37 1.0 2.0 0.00 0.00 0.00 34 1012.5
20260504172437 76 130 0.0 1.0 0.00 0.00 0.00 36 1012.6
20260504171934 76 148 0.0 1.0 0.00 0.00 0.00 37 1012.3
20260504171431 75 141 0.0 0.0 0.00 0.00 0.00 38 1012.5
20260504170928 74 137 2.0 2.0 0.00 0.00 0.00 37 1012.6
20260504170424 74 127 0.0 1.0 0.00 0.00 0.00 38 1012.5
20260504160343 72 221 0.0 0.0 0.00 0.00 0.00 39 1012.3
20260504150808 66 220 0.0 0.0 0.00 0.00 0.00 52 1012.0
20260504150304 66 221 0.0 0.0 0.00 0.00 0.00 50 1012.0
20260504141235 58 220 0.0 0.0 0.00 0.00 0.00 50 1011.7
20260504140731 57 220 0.0 0.0 0.00 0.00 0.00 52 1011.7
20260504140226 57 220 0.0 0.0 0.00 0.00 0.00 50 1011.8
20260504130655 56 220 0.0 0.0 0.00 0.00 0.00 46 1011.3
20260504130151 57 220 0.0 1.0 0.00 0.00 0.00 43 1011.4
20260504120115 62 190 1.0 2.0 0.00 0.00 0.00 35 1011.2
20260504110543 63 207 1.0 2.0 0.00 0.00 0.00 34 1011.0
20260504100505 64 205 2.0 3.0 0.00 0.00 0.00 34 1011.2
20260504081857 64 195 1.0 2.0 0.00 0.00 0.00 36 1011.3
20260504081354 64 195 0.0 1.0 0.00 0.00 0.00 36 1011.0
20260504080850 64 190 0.0 1.0 0.00 0.00 0.00 35 1011.2
20260504080348 64 173 1.0 3.0 0.00 0.00 0.00 35 1011.2
20260504070315 62 189 1.0 2.0 0.00 0.00 0.00 39 1011.4
20260504060235 58 163 0.0 1.0 0.00 0.00 0.00 56 1011.7
20260504050703 64 160 1.0 1.0 0.00 0.00 0.00 42 1011.7
20260504050200 64 159 0.0 2.0 0.00 0.00 0.00 41 1011.5
20260504045658 64 154 1.0 1.0 0.00 0.00 0.00 43 1011.7
20260504045157 64 154 0.0 1.0 0.00 0.00 0.00 42 1011.7
20260504044655 64 147 1.0 1.0 0.00 0.00 0.00 43 1011.6
20260504044152 64 144 0.0 1.0 0.00 0.00 0.00 45 1011.4
20260504043649 63 142 0.0 1.0 0.00 0.00 0.00 45 1011.3
20260504043146 63 134 0.0 1.0 0.00 0.00 0.00 46 1011.6
20260504042644 63 120 0.0 1.0 0.00 0.00 0.00 46 1011.6
20260504042140 63 120 0.0 0.0 0.00 0.00 0.00 48 1011.6
20260504041636 63 120 0.0 1.0 0.00 0.00 0.00 48 1012.0
20260504041132 63 120 0.0 1.0 0.00 0.00 0.00 48 1011.9
20260504040630 63 119 1.0 1.0 0.00 0.00 0.00 48 1011.7
20260504040127 64 119 0.0 1.0 0.00 0.00 0.00 47 1011.7
20260504035623 64 119 0.0 0.0 0.00 0.00 0.00 47 1011.5
20260504035120 65 119 0.0 0.0 0.00 0.00 0.00 45 1011.6
20260504034618 66 119 0.0 0.0 0.00 0.00 0.00 44 1011.8
20260504034114 66 119 0.0 0.0 0.00 0.00 0.00 43 1011.3
20260504033612 66 119 1.0 1.0 0.00 0.00 0.00 41 1011.4
20260504033109 66 107 0.0 0.0 0.00 0.00 0.00 43 1011.6
20260504032606 67 107 0.0 0.0 0.00 0.00 0.00 43 1011.6
20260504032103 68 107 0.0 0.0 0.00 0.00 0.00 40 1011.6
20260504031600 67 107 0.0 0.0 0.00 0.00 0.00 41 1011.4
20260504031056 68 107 0.0 0.0 0.00 0.00 0.00 40 1011.4
20260504030553 68 107 0.0 0.0 0.00 0.00 0.00 38 1011.4
20260504030050 69 107 0.0 0.0 0.00 0.00 0.00 37 1011.7
20260504025547 70 107 0.0 0.0 0.00 0.00 0.00 36 1011.7
20260504025044 71 107 0.0 0.0 0.00 0.00 0.00 31 1011.8
20260504024541 71 107 0.0 0.0 0.00 0.00 0.00 30 1011.7
20260504024038 72 107 0.0 0.0 0.00 0.00 0.00 29 1011.7
20260504023534 73 107 0.0 0.0 0.00 0.00 0.00 28 1011.7
20260504023030 73 107 0.0 0.0 0.00 0.00 0.00 27 1011.8
20260504022526 74 107 0.0 0.0 0.00 0.00 0.00 27 1011.8
20260504022023 75 107 0.0 0.0 0.00 0.00 0.00 25 1011.9
20260504021520 75 107 0.0 0.0 0.00 0.00 0.00 24 1011.8
20260504021017 76 107 0.0 0.0 0.00 0.00 0.00 24 1012.0
20260504020514 76 107 0.0 0.0 0.00 0.00 0.00 24 1011.8
20260504020011 76 107 0.0 1.0 0.00 0.00 0.00 24 1012.0
20260504015507 76 107 0.0 0.0 0.00 0.00 0.00 26 1011.9
20260504015003 76 107 0.0 1.0 0.00 0.00 0.00 24 1012.0
20260504014459 76 106 0.0 0.0 0.00 0.00 0.00 25 1012.1
20260504013956 76 106 2.0 2.0 0.00 0.00 0.00 27 1012.3
20260504013455 77 106 2.0 2.0 0.00 0.00 0.00 25 1012.2
20260504012950 78 88 1.0 1.0 0.00 0.00 0.00 26 1012.4
20260504012448 79 88 1.0 1.0 0.00 0.00 0.00 25 1012.5
20260504011946 79 87 0.0 0.0 0.00 0.00 0.00 27 1012.8